Lid_Strength_Index
3 6 9 8 11 12 14 12 10 11 11 8 7 7 9 8 9 11 3 1 0 0 -0 -0 -1 -1 -1 -1 -1 -1 -1 -1 -1 -1 -1 -1 -2 -2 -1 -1 -1 -1 -2 -2 -2 -2 -2 -1 -1
5 7 8 9 13 16 14 10 11 11 9 7 6 7 8 10 6 5 4 1 0 -0 -0 -0 -0 -1 -1 -1 -1 -1 -1 -1 -1 -1 -1 -2 -2 -2 -1 -1 -1 -1 -2 -2 -2 -2 -2 -2 -2
6 7 10 11 14 15 13 12 10 8 8 7 8 6 7 8 5 4 1 0 0 0 -0 -0 -0 -1 -1 -1 -1 -1 -1 -1 -1 -1 -2 -2 -2 -1 -1 -1 -2 -2 -2 -1 -1 -1 -1 -1 -1
10 10 11 13 14 12 11 11 8 8 9 8 7 9 6 4 4 2 1 0 0 0 -0 0 -0 -1 -1 -1 -1 -1 -1 -1 -2 -2 -1 -2 -1 -1 -1 -1 -2 -2 -2 -1 -1 -1 -1 -1 -1
9 12 15 15 14 12 11 9 9 8 9 9 7 9 9 4 2 1 1 0 1 0 -0 -0 -0 -1 -1 -1 -1 -1 -1 -1 -1 -2 -2 -2 -1 -1 -1 -1 -2 -2 -2 -1 -1 -1 -1 -1 -1
12 13 17 17 15 13 11 9 9 9 8 9 8 8 8 3 3 2 1 1 0 0 -0 -0 1 1 -0 -1 -1 -1 -1 -1 -1 -1 -1 -1 -1 -1 -1 -1 -2 -2 -1 -1 -1 -1 -1 -1 -1
13 15 17 16 16 14 12 9 10 10 9 9 6 9 7 5 4 1 1 1 0 -0 -0 -0 -0 0 1 1 0 -0 -1 -1 -1 -1 -1 -1 -1 -2 -2 -2 -2 -2 -1 -1 -1 -2 -2 -1 -2
11 13 16 17 17 15 11 11 11 10 10 8 6 9 9 5 3 3 1 1 1 0 0 0 -0 -0 -0 -0 1 1 0 0 -0 -0 0 0 -0 -0 -1 -0 -1 -2 -2 -2 -2 -2 -1 -1 -2
11 15 16 16 16 15 11 12 11 11 10 10 8 6 5 3 2 3 2 2 2 1 0 0 0 0 -0 0 1 2 1 1 1 1 1 2 -0 -0 0 0 -1 -2 -2 -2 -2 -1 -1 -1 -1
12 16 14 13 13 13 12 12 12 12 11 10 7 5 3 3 3 4 4 4 3 2 1 0 0 0 0 -0 0 0 0 1 0 0 0 0 0 -0 -1 0 1 -0 -0 -1 -1 -1 -1 0 1
12 14 13 13 12 11 11 13 13 13 13 10 8 6 5 4 4 4 4 3 3 2 1 1 0 0 0 0 1 1 1 1 1 0 0 0 0 1 0 0 0 0 2 1 1 1 2 1 1
14 12 12 11 11 11 12 12 13 12 11 10 6 5 5 5 4 4 4 4 3 2 2 1 0 1 1 1 1 1 1 1 1 1 0 0 0 0 1 1 3 3 2 5 5 6 6 7 6
13 12 12 12 12 12 12 13 14 12 10 10 10 9 5 5 4 4 3 3 3 3 2 1 0 0 0 0 0 1 2 3 4 5 4 3 4 6 7 8 8 7 7 7 8 8 8 8 7
12 13 13 13 12 13 13 14 14 10 9 10 10 8 6 5 4 5 4 4 4 3 2 1 1 0 0 1 1 2 3 6 8 8 8 8 8 8 8 8 8 8 9 9 9 9 9 8 8
12 14 14 14 12 13 13 15 15 10 11 11 12 11 8 7 8 6 5 5 3 3 2 2 1 1 1 3 4 5 7 8 8 9 9 9 8 8 9 9 9 9 9 9 9 9 9 9 8
15 16 18 14 13 13 13 16 12 10 11 12 13 13 12 11 9 11 12 10 3 3 3 2 1 2 4 4 6 7 8 9 10 10 10 8 8 8 9 9 9 9 9 9 9 9 9 9 9
15 19 18 15 13 14 15 16 13 12 12 12 13 14 13 13 13 11 10 11 6 2 3 3 4 5 6 7 8 9 10 10 11 10 9 8 8 8 9 9 9 9 9 9 9 9 9 9 9
17 17 16 16 14 15 17 17 14 14 13 14 14 14 15 14 12 11 10 10 6 3 3 4 5 7 8 8 9 10 11 10 10 10 9 9 9 8 9 9 9 9 9 10 9 10 9 10 10
15 16 16 14 13 14 15 15 14 13 15 15 15 15 14 13 11 11 10 10 3 5 6 5 7 9 9 10 11 11 11 10 11 10 9 9 9 9 9 10 10 10 10 10 10 10 11 11 11
16 18 17 15 13 14 15 15 13 13 13 12 13 13 13 12 11 11 11 9 4 6 6 7 8 9 9 9 10 11 10 10 10 10 9 9 9 9 10 10 10 10 11 11 11 11 12 12 11
16 17 18 17 15 15 16 15 14 12 12 12 11 11 11 12 11 11 11 9 5 6 8 8 9 9 9 11 12 11 10 10 11 10 10 10 10 10 10 11 11 11 11 11 12 12 12 13 12
17 14 14 15 17 20 16 20 16 14 12 12 11 11 11 11 11 10 11 10 6 6 7 9 10 11 10 11 11 11 11 11 11 11 11 10 10 10 10 11 11 11 11 12 12 12 12 13 14
14 14 14 15 17 19 18 21 17 14 14 13 12 11 11 10 11 11 11 10 7 9 8 9 11 11 11 10 10 10 10 11 11 11 11 11 11 11 11 11 11 12 12 13 13 13 13 13 13
11 13 13 15 19 23 17 18 17 15 14 13 12 12 11 12 12 11 11 10 10 11 11 10 11 12 11 9 10 10 10 11 11 11 11 12 12 12 11 11 12 12 13 13 13 13 13 13 13
11 14 19 20 21 21 17 19 16 14 14 13 12 12 12 12 13 13 12 11 12 11 11 10 11 12 11 11 10 10 10 10 11 11 12 13 13 13 13 12 13 13 13 13 13 13 13 13 11
13 14 18 23 22 21 18 19 16 14 12 12 12 11 12 13 12 13 12 11 12 11 11 11 11 11 10 10 10 10 10 11 11 12 12 12 13 13 13 13 13 12 12 13 13 13 13 11 11
13 16 13 17 16 19 18 17 14 13 14 14 14 14 14 14 13 12 12 12 12 12 11 11 11 11 11 10 11 11 11 11 12 12 12 13 13 13 13 13 13 13 13 13 13 13 13 12 11
11 10 16 16 21 22 19 19 17 16 15 14 15 15 15 14 13 13 12 12 11 11 11 11 11 11 12 11 11 11 12 12 12 13 13 13 13 13 13 13 13 13 13 13 13 13 13 13 11
13 14 14 14 16 21 22 20 15 16 15 15 15 14 15 14 14 13 13 12 12 11 11 12 11 11 11 12 12 12 12 12 12 13 13 13 13 13 13 13 13 13 14 14 14 14 13 12 11
10 12 12 17 18 16 17 17 12 11 12 12 12 14 14 13 13 13 12 12 11 11 11 11 11 11 11 12 12 12 12 12 13 13 13 13 13 13 13 13 14 14 14 14 14 14 13 13 11